Regional Weather Roundup
Issued by NWS

Home | Current Version | Previous Version | Graphics & Text | Print | Product List | Glossary On
Versions: 1 2 3 4 5 6 7 8 9 10 11 12 13 14 15 16 17 18 19 20 21 22 23 24 25 26 27 28 29 30 31 32 33 34 35 36 37 38 39 40 41 42 43 44 45 46 47 48 49 50
000
ASUS43 KMKX 050110
RWRWI

WISCONSIN REGIONAL WEATHER ROUNDUP
NATIONAL WEATHER SERVICE MILWAUKEE/SULLIVAN WI
700 PM CST WED MAR 04 2015

NOTE: "FAIR" INDICATES FEW OR NO CLOUDS BELOW 12,000 FEET WITH NO
SIGNIFICANT WEATHER AND/OR OBSTRUCTIONS TO VISIBILITY.

WIZ001-002-006>008-014>016-023>028-050200-
NORTHWEST WISCONSIN

CITY           SKY/WX    TMP DP  RH WIND       PRES   REMARKS
SUPERIOR ARPT  CLEAR      2 -13  48 W9        30.32R WCI -13
ASHLAND        CLEAR     -5 -13  68 SW3       30.27R
HAYWARD        CLEAR      1 -14  49 CALM      30.24R
SIREN          CLEAR      0 -14  51 NW5       30.29R WCI -10
CUMBERLAND     FAIR       1 -15  46 NW9       30.24R WCI -14
RICE LAKE      FAIR       3 -13  46 NW7       30.27R WCI  -9
CHETEK         FAIR       3 -12  51 MISG      30.26R
LADYSMITH      CLEAR      3 -11  52 NW8       30.24R WCI -10
EAU CLAIRE     CLEAR      5 -12  45 NW8       30.27R WCI  -8
MENOMONIE      CLEAR      5 -11  47 W8        30.28R WCI  -8
NEW RICHMOND   CLEAR      2 -12  50 NW9       30.30R WCI -12
OSCEOLA        CLEAR      3 -11  52 W12       30.33R WCI -13
$$

WIZ003>005-009-010-017-018-050200-
NORTH CENTRAL WISCONSIN

CITY           SKY/WX    TMP DP  RH WIND       PRES   REMARKS
MANITOWISH WTR CLEAR     -4 -15  59 NW5       30.15R WCI -15
ARBOR VITAE    CLEAR      1  -7  67 NW6       30.15R WCI -10
WOODRUFF       CLEAR      1  -7  67 NW6       30.15R WCI -10
RHINELANDER    CLEAR      0 -11  59 NW5       30.14R WCI -10
EAGLE RIVER    CLEAR     -1 -14  53 NW6       30.13R WCI -12
LAND O LAKES   CLEAR     -1 -13  55 NW6       30.13R WCI -12
PHILLIPS       CLEAR      0 -12  56 CALM      30.17R
TOMAHAWK       CLEAR      0 -13  54 CALM      30.16R
MEDFORD        CLEAR      1 -13  51 NW5       30.17R WCI  -8
MERRILL        CLEAR      4 -12  46 NW9       30.17R WCI -10
$$

WIZ029-030-035-036-043>047-050200-
CENTRAL WISCONSIN

CITY           SKY/WX    TMP DP  RH WIND       PRES   REMARKS
WAUSAU         CLEAR      4 -12  48 W9        30.17R WCI -10
MOSINEE        CLEAR      3 -11  51 W7        30.19R WCI  -9
MARSHFIELD     CLEAR      4 -11  50 NW12      30.21R WCI -12
STEVENS POINT  CLEAR      5 -13  43 W8        30.22R WCI  -8
WAUPACA        CLEAR     10 -10  38 W7        30.24R WCI   0
WAUTOMA        CLEAR      9  -9  44 NW8       30.24R WCI  -3
WISC RAPIDS    CLEAR      7 -10  46 N6        30.25R WCI  -3
CAMP DOUGLAS   PTCLDY     7  -6  56 VRB7      30.25R WCI  -5
$$

WIZ011>013-019>022-031-037>040-048>050-050200-
NORTHEAST WISCONSIN

CITY           SKY/WX    TMP DP  RH WIND       PRES   REMARKS
ANTIGO         CLEAR      1 -12  53 NW8       30.15R WCI -13
SHAWANO        CLEAR     10 -12  36 W3        30.22R
OCONTO         FAIR       9 -12  38 NW6       30.22R WCI  -1
STURGEON BAY   CLEAR      7 -11  43 NW9       30.22R WCI  -7
GREEN BAY      CLEAR      7  -8  50 W10       30.23R WCI  -8
MANITOWOC      PTCLDY     9  -8  46 NW12      30.22R WCI  -6
APPLETON       CLEAR      9 -11  40 NW15      30.21R WCI  -8
CLINTONVILLE   CLEAR      9  -9  43 W7        30.22R WCI  -3
OSHKOSH        CLEAR     10  -7  46 NW10      30.20R WCI  -4
$$

WIZ032>034-041-042-053>061-050200-
SOUTHWEST WISCONSIN

CITY           SKY/WX    TMP DP  RH WIND       PRES   REMARKS
LA CROSSE      CLEAR      9  -4  55 W8        30.31R WCI  -3
SPARTA         MOCLDY     9  -4  54 W5        30.29R WCI   1
VIROQUA        CLEAR      7  -5  57 NW9       30.24R WCI  -7
BOSCOBEL       PTCLDY    12  -4  48 W7        30.31R WCI   1
PRAIRIE DU CHI FAIR      10  -2  58 W7        30.31R WCI  -1
PLATTEVILLE    PTCLDY     9  -2  61 W9        30.26R WCI  -4
$$

WIZ056-057-062-063-064-067-068-050200-
SOUTH CENTRAL WISCONSIN

CITY           SKY/WX    TMP DP  RH WIND       PRES   REMARKS
REEDSBURG      CLEAR     10  -5  50 NW5       30.25R WCI   2
BARABOO/DELLS  CLEAR     10  -8  45 CALM      30.24R
LONE ROCK      PTCLDY    12  -5  46 NW8       30.28R WCI   0
MINERAL POINT  PTCLDY    12  -4  48 W9        30.22R WCI   0
MADISON        PTCLDY    12  -6  44 NW7       30.23R WCI   1
MIDDLETON      PTCLDY    13  -6  41 W8        30.23R WCI   2
WATERTOWN      CLEAR     13  -4  46 NW10      30.22R WCI   0
MONROE         PTCLDY    10   0  61 W13       30.22R WCI  -5
JANESVILLE     CLEAR     14  -2  48 W9        30.22R WCI   2
$$

WIZ051-052-058>065-066-070>072-050200-
SOUTHEAST WISCONSIN

CITY           SKY/WX    TMP DP  RH WIND       PRES   REMARKS
MILWAUKEE      MOCLDY    16  -5  39 NW8       30.22R WCI   5
WAUKESHA       PTCLDY    10  -6  48 W9        30.21R WCI  -2
MILWAUKEE/TIMM NOT AVBL
RACINE         PTCLDY    15  -5  40 NW6       30.24R WCI   6
BURLINGTON     PTCLDY    10  -7  47 NW7       30.22S WCI  -2
KENOSHA        FAIR      13  -4  46 W7        30.23R WCI   3
FOND DU LAC    CLEAR     10  -7  46 NW8       30.21R WCI  -2
SHEBOYGAN      PTCLDY    11  -8  42 NW10      30.21R WCI  -3
WEST BEND      CLEAR     12  -8  40 NW8       30.20S WCI   1
JUNEAU         CLEAR     11  -6  46 W5        30.23R WCI   3
$$

LSZ147-162-050200-
LAKE SUPERIOR

STATION/POSITION TIME  TEMP    WIND        PRES    WAVE
                       AIR SEA DIR/SP/G            HT/PER
                 (UTC) (F)     (DEG/KT/KT) (MB)    (FT/S)
DEVILS ISLAND    0100    6     320/ 16/ 18 1026.7R
PORT WING        0000    6     290/ 13/ 19 1024.7R
SAXON HARBOR     0040    3     240/  3/  6 1025.1R
$$

LMZ867-665-643>646-050200-
LAKE MICHIGAN

STATION/POSITION TIME  TEMP    WIND        PRES    WAVE
                       AIR SEA DIR/SP/G            HT/PER
                 (UTC) (F)     (DEG/KT/KT) (MB)    (FT/S)
NORTHPORT PIER   0010   13     320/ 20/ 24 1021.3R
SISTER BAY       0013    7     330/ 14/ 15   N/A
KEWAUNEE LAKESHO 0000   11     270/  6/ 11 1020.7R
SHEBOYGAN LAKESH 0100   13     310/  9/ 12 1025.0R
PORT WASHINGTON  0000   16     310/  8/ 12 1023.4R
MILWAUKEE LAKESH 0000   17     310/  9/ 13   N/A
KENOSHA   LAKESH 0100   16     290/  6/  9 1023.7R
$$

TC  - TEMPERATURE IN CELSIUS
VSB - VISIBILITY IN STATUTE MILES
WCI - WIND CHILL INDEX
HX  - HEAT INDEX



USA.gov is the U.S. government's official web portal to all federal, state and local government web resources and services.